Time,TemperatureF,DewpointF,PressureIn,WindDirection,WindDirectionDegrees,WindSpeedMPH,WindSpeedGustMPH,Humidity,HourlyPrecipIn,Conditions,Clouds,dailyrainin,SolarRadiationWatts/m^2,SoftwareType,DateUTC
2013-08-12 00:01:00,59.1,50.8,30.03,NW,319,1.0,1.0,74,0.00,,,0.00,0,WeatherCatV1.21B27,2013-08-11 23:01:00,
2013-08-12 00:06:00,59.0,51.1,30.03,NW,319,0.0,0.0,75,0.00,,,0.00,0,WeatherCatV1.21B27,2013-08-11 23:06:00,
2013-08-12 00:11:00,59.0,51.1,30.03,NW,319,0.0,0.0,75,0.00,,,0.00,0,WeatherCatV1.21B27,2013-08-11 23:11:00,
2013-08-12 00:16:00,58.9,51.0,30.02,NW,319,0.0,0.0,75,0.00,,,0.00,0,WeatherCatV1.21B27,2013-08-11 23:16:00,
2013-08-12 00:21:00,58.9,51.3,30.02,NW,319,0.0,0.0,76,0.00,,,0.00,0,WeatherCatV1.21B27,2013-08-11 23:21:00,
2013-08-12 00:26:00,58.9,51.3,30.02,NW,319,0.0,0.0,76,0.00,,,0.00,0,WeatherCatV1.21B27,2013-08-11 23:26:00,
2013-08-12 00:31:00,58.9,51.3,30.02,NW,319,0.0,0.0,76,0.00,,,0.00,0,WeatherCatV1.21B27,2013-08-11 23:31:00,
2013-08-12 00:36:00,58.8,51.6,30.02,NW,319,0.0,0.0,77,0.00,,,0.00,0,WeatherCatV1.21B27,2013-08-11 23:36:00,
2013-08-12 00:41:00,58.7,51.5,30.02,NW,319,0.0,0.0,77,0.00,,,0.00,0,WeatherCatV1.21B27,2013-08-11 23:41:00,
2013-08-12 00:46:00,58.6,51.4,30.02,NW,319,0.0,0.0,77,0.00,,,0.00,0,WeatherCatV1.21B27,2013-08-11 23:46:00,
2013-08-12 00:51:00,58.6,51.8,30.02,NW,319,0.0,0.0,78,0.00,,,0.00,0,WeatherCatV1.21B27,2013-08-11 23:51:00,
2013-08-12 00:56:00,58.5,51.7,30.02,NW,319,0.0,0.0,78,0.00,,,0.00,0,WeatherCatV1.21B27,2013-08-11 23:56:00,
2013-08-12 01:01:00,58.5,51.7,30.02,NW,319,0.0,0.0,78,0.00,,,0.00,0,WeatherCatV1.21B27,2013-08-12 00:01:00,
2013-08-12 01:06:00,58.4,51.6,30.02,NW,319,0.0,0.0,78,0.00,,,0.00,0,WeatherCatV1.21B27,2013-08-12 00:06:00,
2013-08-12 01:11:00,58.3,51.8,30.02,NW,319,0.0,0.0,79,0.00,,,0.00,0,WeatherCatV1.21B27,2013-08-12 00:11:00,
2013-08-12 01:16:00,58.2,51.7,30.02,NW,319,0.0,0.0,79,0.00,,,0.00,0,WeatherCatV1.21B27,2013-08-12 00:16:00,
2013-08-12 01:21:00,58.1,51.6,30.02,NW,319,0.0,0.0,79,0.00,,,0.00,0,WeatherCatV1.21B27,2013-08-12 00:21:00,
2013-08-12 01:27:00,58.0,51.9,30.02,NW,319,0.0,0.0,80,0.00,,,0.00,0,WeatherCatV1.21B27,2013-08-12 00:27:00,
2013-08-12 01:32:00,57.8,51.7,30.01,NW,319,0.0,0.0,80,0.00,,,0.00,0,WeatherCatV1.21B27,2013-08-12 00:32:00,
2013-08-12 01:37:00,57.7,51.9,30.01,NW,319,0.0,0.0,81,0.00,,,0.00,0,WeatherCatV1.21B27,2013-08-12 00:37:00,
2013-08-12 01:42:00,57.6,51.8,30.01,NW,319,0.0,0.0,81,0.00,,,0.00,0,WeatherCatV1.21B27,2013-08-12 00:42:00,
2013-08-12 01:47:00,57.5,51.7,30.02,NW,319,0.0,0.0,81,0.00,,,0.00,0,WeatherCatV1.21B27,2013-08-12 00:47:00,
2013-08-12 01:52:00,57.3,51.5,30.01,NW,319,0.0,0.0,81,0.00,,,0.00,0,WeatherCatV1.21B27,2013-08-12 00:52:00,
2013-08-12 01:57:00,57.2,51.8,30.01,NW,319,0.0,0.0,82,0.00,,,0.00,0,WeatherCatV1.21B27,2013-08-12 00:57:00,
2013-08-12 02:02:00,56.9,51.5,30.02,NW,319,0.0,0.0,82,0.00,,,0.00,0,WeatherCatV1.21B27,2013-08-12 01:02:00,
2013-08-12 02:07:00,56.8,51.4,30.01,NW,319,0.0,0.0,82,0.00,,,0.00,0,WeatherCatV1.21B27,2013-08-12 01:07:00,
2013-08-12 02:12:00,56.7,51.6,30.01,NW,319,0.0,0.0,83,0.00,,,0.00,0,WeatherCatV1.21B27,2013-08-12 01:12:00,
2013-08-12 02:17:00,56.6,51.5,30.01,NW,319,0.0,0.0,83,0.00,,,0.00,0,WeatherCatV1.21B27,2013-08-12 01:17:00,
2013-08-12 02:22:00,56.5,51.7,30.01,NW,319,0.0,0.0,84,0.00,,,0.00,0,WeatherCatV1.21B27,2013-08-12 01:22:00,
2013-08-12 02:27:00,56.5,51.7,30.01,NW,319,0.0,0.0,84,0.00,,,0.00,0,WeatherCatV1.21B27,2013-08-12 01:27:00,
2013-08-12 02:32:00,56.4,51.6,30.01,NW,319,0.0,0.0,84,0.00,,,0.00,0,WeatherCatV1.21B27,2013-08-12 01:32:00,
2013-08-12 02:37:00,56.4,51.6,30.01,NW,319,0.0,0.0,84,0.00,,,0.00,0,WeatherCatV1.21B27,2013-08-12 01:37:00,
2013-08-12 02:42:00,56.4,51.6,30.01,NW,319,0.0,0.0,84,0.00,,,0.00,0,WeatherCatV1.21B27,2013-08-12 01:42:00,
2013-08-12 02:47:00,56.3,51.5,30.00,NW,319,0.0,0.0,84,0.00,,,0.00,0,WeatherCatV1.21B27,2013-08-12 01:47:00,
2013-08-12 02:52:00,56.2,51.4,30.00,NW,319,0.0,0.0,84,0.00,,,0.00,0,WeatherCatV1.21B27,2013-08-12 01:52:00,
2013-08-12 02:57:00,56.1,51.7,30.01,NW,319,0.0,0.0,85,0.00,,,0.00,0,WeatherCatV1.21B27,2013-08-12 01:57:00,
2013-08-12 03:02:00,56.0,51.5,30.01,NW,319,0.0,0.0,85,0.00,,,0.00,0,WeatherCatV1.21B27,2013-08-12 02:02:00,
2013-08-12 03:08:00,55.9,51.5,30.01,NW,319,0.0,0.0,85,0.00,,,0.00,0,WeatherCatV1.21B27,2013-08-12 02:08:00,
2013-08-12 03:13:00,55.7,51.3,30.01,NW,319,0.0,0.0,85,0.00,,,0.00,0,WeatherCatV1.21B27,2013-08-12 02:13:00,
2013-08-12 03:18:00,55.6,51.5,30.01,NW,319,0.0,0.0,86,0.00,,,0.00,0,WeatherCatV1.21B27,2013-08-12 02:18:00,
2013-08-12 03:23:00,55.6,51.5,30.01,NW,319,0.0,0.0,86,0.00,,,0.00,0,WeatherCatV1.21B27,2013-08-12 02:23:00,
2013-08-12 03:28:00,55.6,51.5,30.01,NW,319,0.0,0.0,86,0.00,,,0.00,0,WeatherCatV1.21B27,2013-08-12 02:28:00,
2013-08-12 03:33:00,55.6,51.8,30.00,NW,319,0.0,0.0,87,0.00,,,0.00,0,WeatherCatV1.21B27,2013-08-12 02:33:00,
2013-08-12 03:38:00,55.6,51.8,30.00,NW,319,0.0,0.0,87,0.00,,,0.00,0,WeatherCatV1.21B27,2013-08-12 02:38:00,
2013-08-12 03:43:00,55.6,51.8,30.01,NW,319,0.0,0.0,87,0.00,,,0.00,0,WeatherCatV1.21B27,2013-08-12 02:43:00,
2013-08-12 03:48:00,55.7,51.9,30.00,NW,319,0.0,0.0,87,0.00,,,0.00,0,WeatherCatV1.21B27,2013-08-12 02:48:00,
2013-08-12 03:53:00,55.7,51.9,30.00,NW,319,0.0,0.0,87,0.00,,,0.00,0,WeatherCatV1.21B27,2013-08-12 02:53:00,
2013-08-12 03:58:00,55.6,51.8,30.00,NW,319,0.0,0.0,87,0.00,,,0.00,0,WeatherCatV1.21B27,2013-08-12 02:58:00,
2013-08-12 04:03:00,55.6,51.8,30.00,NW,319,0.0,0.0,87,0.00,,,0.00,0,WeatherCatV1.21B27,2013-08-12 03:03:00,
2013-08-12 04:08:00,55.6,51.8,30.00,NW,319,0.0,0.0,87,0.00,,,0.00,0,WeatherCatV1.21B27,2013-08-12 03:08:00,
2013-08-12 04:13:00,55.5,51.7,30.01,NW,319,0.0,0.0,87,0.00,,,0.00,0,WeatherCatV1.21B27,2013-08-12 03:13:00,
2013-08-12 04:18:00,55.5,51.7,30.01,NW,319,0.0,0.0,87,0.00,,,0.00,0,WeatherCatV1.21B27,2013-08-12 03:18:00,
2013-08-12 04:23:00,55.5,51.7,30.00,NW,319,0.0,2.0,87,0.00,,,0.00,0,WeatherCatV1.21B27,2013-08-12 03:23:00,
2013-08-12 04:29:00,55.6,51.8,30.00,NW,319,0.0,0.0,87,0.00,,,0.00,0,WeatherCatV1.21B27,2013-08-12 03:29:00,
2013-08-12 04:34:00,55.5,51.7,30.00,NW,319,0.0,0.0,87,0.00,,,0.00,0,WeatherCatV1.21B27,2013-08-12 03:34:00,
2013-08-12 04:39:00,55.5,51.7,30.00,NW,319,0.0,0.0,87,0.00,,,0.00,0,WeatherCatV1.21B27,2013-08-12 03:39:00,
2013-08-12 04:44:00,55.5,51.7,30.00,NW,319,0.0,0.0,87,0.00,,,0.00,0,WeatherCatV1.21B27,2013-08-12 03:44:00,
2013-08-12 04:49:00,55.4,51.6,30.00,NW,319,0.0,1.0,87,0.00,,,0.00,0,WeatherCatV1.21B27,2013-08-12 03:49:00,
2013-08-12 04:54:00,55.3,51.5,30.00,NW,319,0.0,0.0,87,0.00,,,0.00,0,WeatherCatV1.21B27,2013-08-12 03:54:00,
2013-08-12 04:59:00,55.2,51.4,30.00,NW,319,0.0,0.0,87,0.00,,,0.00,0,WeatherCatV1.21B27,2013-08-12 03:59:00,
2013-08-12 05:01:00,55.2,51.7,30.00,NW,319,0.0,0.0,88,0.00,,,0.00,0,WeatherCatV1.21B27,2013-08-12 04:01:00,
2013-08-12 05:02:00,55.2,51.7,30.00,NW,319,0.0,0.0,88,0.00,,,0.00,0,WeatherCatV1.21B27,2013-08-12 04:02:00,
2013-08-12 05:03:00,55.1,51.6,30.00,NW,319,0.0,1.0,88,0.00,,,0.00,0,WeatherCatV1.21B27,2013-08-12 04:03:00,
2013-08-12 05:06:00,55.2,51.7,30.00,NW,319,0.0,1.0,88,0.00,,,0.00,0,WeatherCatV1.21B27,2013-08-12 04:06:00,
2013-08-12 05:11:00,55.2,51.7,30.00,NW,319,0.0,0.0,88,0.00,,,0.00,0,WeatherCatV1.21B27,2013-08-12 04:11:00,
2013-08-12 05:17:00,55.1,51.6,29.99,NW,319,0.0,0.0,88,0.00,,,0.00,0,WeatherCatV1.21B27,2013-08-12 04:17:00,
2013-08-12 05:22:00,55.1,51.6,29.99,NW,319,0.0,0.0,88,0.00,,,0.00,0,WeatherCatV1.21B27,2013-08-12 04:22:00,
2013-08-12 05:27:00,55.0,51.5,29.99,NW,319,0.0,0.0,88,0.00,,,0.00,0,WeatherCatV1.21B27,2013-08-12 04:27:00,
2013-08-12 05:32:00,54.9,51.4,29.99,NW,319,0.0,0.0,88,0.00,,,0.00,0,WeatherCatV1.21B27,2013-08-12 04:32:00,
2013-08-12 05:37:00,54.8,51.3,30.00,NW,319,0.0,0.0,88,0.00,,,0.00,0,WeatherCatV1.21B27,2013-08-12 04:37:00,
2013-08-12 05:42:00,54.8,51.6,29.99,NW,319,1.0,1.0,89,0.00,,,0.00,0,WeatherCatV1.21B27,2013-08-12 04:42:00,
2013-08-12 05:47:00,54.8,51.6,30.00,NW,319,0.0,0.0,89,0.00,,,0.00,0,WeatherCatV1.21B27,2013-08-12 04:47:00,
2013-08-12 05:52:00,54.7,51.5,30.00,NW,319,0.0,0.0,89,0.00,,,0.00,0,WeatherCatV1.21B27,2013-08-12 04:52:00,
2013-08-12 05:57:00,54.7,51.5,29.99,NW,319,0.0,1.0,89,0.00,,,0.00,0,WeatherCatV1.21B27,2013-08-12 04:57:00,
2013-08-12 06:02:00,54.7,51.5,29.99,NW,319,0.0,0.0,89,0.00,,,0.00,5,WeatherCatV1.21B27,2013-08-12 05:02:00,
2013-08-12 06:07:00,54.7,51.5,30.00,NW,319,0.0,0.0,89,0.00,,,0.00,9,WeatherCatV1.21B27,2013-08-12 05:07:00,
2013-08-12 06:12:00,54.8,51.6,29.99,NW,319,0.0,0.0,89,0.00,,,0.00,12,WeatherCatV1.21B27,2013-08-12 05:12:00,
2013-08-12 06:18:00,54.8,51.6,29.99,NW,319,0.0,1.0,89,0.00,,,0.00,14,WeatherCatV1.21B27,2013-08-12 05:18:00,
2013-08-12 06:23:00,54.9,51.7,29.99,NW,319,0.0,0.0,89,0.00,,,0.00,16,WeatherCatV1.21B27,2013-08-12 05:23:00,
2013-08-12 06:28:00,54.9,51.7,30.00,NW,319,0.0,0.0,89,0.00,,,0.00,21,WeatherCatV1.21B27,2013-08-12 05:28:00,
2013-08-12 06:33:00,54.9,51.7,30.00,NW,319,0.0,0.0,89,0.00,,,0.00,25,WeatherCatV1.21B27,2013-08-12 05:33:00,
2013-08-12 06:38:00,54.9,51.7,30.00,NW,319,0.0,0.0,89,0.00,,,0.00,37,WeatherCatV1.21B27,2013-08-12 05:38:00,
2013-08-12 06:43:00,55.0,51.8,30.00,NW,319,0.0,2.0,89,0.00,,,0.00,39,WeatherCatV1.21B27,2013-08-12 05:43:00,
2013-08-12 06:48:00,55.1,51.9,30.00,NW,319,0.0,2.0,89,0.00,,,0.00,46,WeatherCatV1.21B27,2013-08-12 05:48:00,
2013-08-12 06:53:00,55.2,52.0,30.00,NW,319,0.0,0.0,89,0.00,,,0.00,46,WeatherCatV1.21B27,2013-08-12 05:53:00,
2013-08-12 06:58:00,55.4,52.2,30.00,NW,319,0.0,0.0,89,0.00,,,0.00,51,WeatherCatV1.21B27,2013-08-12 05:58:00,
2013-08-12 07:03:00,55.6,52.1,30.00,NW,319,0.0,0.0,88,0.00,,,0.00,58,WeatherCatV1.21B27,2013-08-12 06:03:00,
2013-08-12 07:08:00,55.8,52.3,30.00,NW,319,0.0,1.0,88,0.00,,,0.00,56,WeatherCatV1.21B27,2013-08-12 06:08:00,
2013-08-12 07:13:00,56.0,52.5,30.00,NW,319,0.0,1.0,88,0.00,,,0.00,72,WeatherCatV1.21B27,2013-08-12 06:13:00,
2013-08-12 07:18:00,56.1,52.3,30.00,NW,319,0.0,3.0,87,0.00,,,0.00,74,WeatherCatV1.21B27,2013-08-12 06:18:00,
2013-08-12 07:23:00,56.2,52.4,30.01,NW,325,2.0,5.0,87,0.00,,,0.00,77,WeatherCatV1.21B27,2013-08-12 06:23:00,
2013-08-12 07:28:00,56.3,52.5,30.01,NW,311,4.0,5.0,87,0.00,,,0.00,79,WeatherCatV1.21B27,2013-08-12 06:28:00,
2013-08-12 07:34:00,56.4,52.6,30.01,NW,312,2.0,2.0,87,0.00,,,0.00,81,WeatherCatV1.21B27,2013-08-12 06:34:00,
2013-08-12 07:39:00,56.5,52.7,30.01,NW,317,2.0,3.0,87,0.00,,,0.00,81,WeatherCatV1.21B27,2013-08-12 06:39:00,
2013-08-12 07:43:00,56.5,52.4,30.01,NW,317,1.0,4.0,86,0.00,,,0.00,79,WeatherCatV1.21B27,2013-08-12 06:43:00,
2013-08-12 07:49:00,56.5,52.4,30.00,NW,318,2.0,2.0,86,0.00,,,0.00,67,WeatherCatV1.21B27,2013-08-12 06:49:00,
2013-08-12 07:54:00,56.5,52.4,30.01,NW,319,2.0,4.0,86,0.00,,,0.00,77,WeatherCatV1.21B27,2013-08-12 06:54:00,
2013-08-12 07:59:00,56.5,52.4,30.01,NW,312,3.0,4.0,86,0.00,,,0.00,81,WeatherCatV1.21B27,2013-08-12 06:59:00,
2013-08-12 08:04:00,56.5,52.4,30.01,NW,305,3.0,3.0,86,0.00,,,0.00,109,WeatherCatV1.21B27,2013-08-12 07:04:00,
2013-08-12 08:10:00,56.7,52.6,30.01,WNW,302,1.0,4.0,86,0.00,,,0.00,141,WeatherCatV1.21B27,2013-08-12 07:10:00,
2013-08-12 08:15:00,56.8,52.7,30.01,NW,309,3.0,4.0,86,0.00,,,0.00,176,WeatherCatV1.21B27,2013-08-12 07:15:00,
2013-08-12 08:20:00,56.9,52.8,30.01,NW,314,3.0,3.0,86,0.00,,,0.00,142,WeatherCatV1.21B27,2013-08-12 07:20:00,
2013-08-12 08:25:00,57.1,53.0,30.01,NW,304,0.0,3.0,86,0.00,,,0.00,132,WeatherCatV1.21B27,2013-08-12 07:25:00,
2013-08-12 08:30:00,57.2,53.0,30.02,NW,312,1.0,3.0,86,0.00,,,0.00,146,WeatherCatV1.21B27,2013-08-12 07:30:00,
2013-08-12 08:35:00,57.4,52.9,30.01,NW,311,0.0,4.0,85,0.00,,,0.00,128,WeatherCatV1.21B27,2013-08-12 07:35:00,
2013-08-12 08:40:00,57.5,53.0,30.01,NW,311,0.0,0.0,85,0.00,,,0.00,141,WeatherCatV1.21B27,2013-08-12 07:40:00,
2013-08-12 08:45:00,57.8,53.3,30.01,NW,311,0.0,3.0,85,0.00,,,0.00,211,WeatherCatV1.21B27,2013-08-12 07:45:00,
2013-08-12 08:50:00,58.1,53.6,30.01,WNW,300,2.0,2.0,85,0.00,,,0.00,225,WeatherCatV1.21B27,2013-08-12 07:50:00,
2013-08-12 08:55:00,58.5,53.7,30.01,NNW,336,2.0,3.0,84,0.00,,,0.00,248,WeatherCatV1.21B27,2013-08-12 07:55:00,
2013-08-12 09:00:00,58.8,53.7,30.01,WNW,290,2.0,3.0,83,0.00,,,0.00,260,WeatherCatV1.21B27,2013-08-12 08:00:00,
2013-08-12 09:05:00,59.1,53.9,30.01,NW,309,0.0,1.0,83,0.00,,,0.00,353,WeatherCatV1.21B27,2013-08-12 08:05:00,
2013-08-12 09:10:00,59.6,54.1,30.01,WNW,284,1.0,2.0,82,0.00,,,0.00,315,WeatherCatV1.21B27,2013-08-12 08:10:00,
2013-08-12 09:15:00,60.0,53.8,30.01,NW,313,3.0,4.0,80,0.00,,,0.00,197,WeatherCatV1.21B27,2013-08-12 08:15:00,
2013-08-12 09:20:00,60.0,53.8,30.01,NW,312,1.0,3.0,80,0.00,,,0.00,171,WeatherCatV1.21B27,2013-08-12 08:20:00,
2013-08-12 09:25:00,60.1,53.6,30.01,WNW,296,3.0,6.0,79,0.00,,,0.00,257,WeatherCatV1.21B27,2013-08-12 08:25:00,
2013-08-12 09:30:00,60.0,53.8,30.01,NNW,327,1.0,3.0,80,0.00,,,0.00,190,WeatherCatV1.21B27,2013-08-12 08:30:00,
2013-08-12 09:35:00,60.5,54.3,30.01,NNW,336,1.0,5.0,80,0.00,,,0.00,591,WeatherCatV1.21B27,2013-08-12 08:35:00,
2013-08-12 09:40:00,61.2,54.3,30.01,NW,319,1.0,5.0,78,0.00,,,0.00,589,WeatherCatV1.21B27,2013-08-12 08:40:00,
2013-08-12 09:46:00,61.7,54.0,30.01,NW,319,4.0,5.0,76,0.00,,,0.00,643,WeatherCatV1.21B27,2013-08-12 08:46:00,
2013-08-12 09:51:00,62.2,53.4,30.01,NW,304,3.0,3.0,73,0.00,,,0.00,696,WeatherCatV1.21B27,2013-08-12 08:51:00,
2013-08-12 09:56:00,62.6,53.4,30.01,WNW,287,2.0,3.0,72,0.00,,,0.00,650,WeatherCatV1.21B27,2013-08-12 08:56:00,
2013-08-12 10:01:00,63.0,53.1,30.01,NW,318,2.0,6.0,70,0.00,,,0.00,631,WeatherCatV1.21B27,2013-08-12 09:01:00,
2013-08-12 10:06:00,63.4,53.0,30.01,WNW,295,2.0,5.0,69,0.00,,,0.00,668,WeatherCatV1.21B27,2013-08-12 09:06:00,
2013-08-12 10:11:00,63.7,52.1,30.01,WNW,303,5.0,6.0,66,0.00,,,0.00,744,WeatherCatV1.21B27,2013-08-12 09:11:00,
2013-08-12 10:16:00,64.0,52.0,30.01,NW,322,2.0,7.0,65,0.00,,,0.00,816,WeatherCatV1.21B27,2013-08-12 09:16:00,
2013-08-12 10:21:00,64.4,52.4,30.01,NW,321,2.0,5.0,65,0.00,,,0.00,278,WeatherCatV1.21B27,2013-08-12 09:21:00,
2013-08-12 10:26:00,64.3,51.9,30.01,NW,317,4.0,4.0,64,0.00,,,0.00,283,WeatherCatV1.21B27,2013-08-12 09:26:00,
2013-08-12 10:27:00,64.2,51.8,30.01,NW,317,0.0,4.0,64,0.00,,,0.00,283,WeatherCatV1.21B27,2013-08-12 09:27:00,
2013-08-12 10:32:00,64.2,51.8,30.01,WNW,298,2.0,7.0,64,0.00,,,0.00,236,WeatherCatV1.21B27,2013-08-12 09:32:00,
2013-08-12 10:37:00,63.7,51.3,30.01,WNW,288,2.0,7.0,64,0.00,,,0.00,315,WeatherCatV1.21B27,2013-08-12 09:37:00,
2013-08-12 10:43:00,63.8,51.8,30.01,NW,314,1.0,4.0,65,0.00,,,0.00,213,WeatherCatV1.21B27,2013-08-12 09:43:00,
2013-08-12 10:48:00,63.6,51.2,30.01,NW,304,3.0,5.0,64,0.00,,,0.00,192,WeatherCatV1.21B27,2013-08-12 09:48:00,
2013-08-12 10:53:00,63.2,50.8,30.01,NNW,328,3.0,6.0,64,0.00,,,0.00,234,WeatherCatV1.21B27,2013-08-12 09:53:00,
2013-08-12 10:58:00,63.1,50.3,30.01,NW,309,0.0,3.0,63,0.00,,,0.00,257,WeatherCatV1.21B27,2013-08-12 09:58:00,
2013-08-12 11:03:00,63.0,50.2,30.01,WNW,292,3.0,8.0,63,0.00,,,0.00,236,WeatherCatV1.21B27,2013-08-12 10:03:00,
2013-08-12 11:08:00,63.2,50.4,30.01,NNW,329,0.0,6.0,63,0.00,,,0.00,264,WeatherCatV1.21B27,2013-08-12 10:08:00,
2013-08-12 11:14:00,63.6,50.3,30.01,NW,309,0.0,4.0,62,0.00,,,0.00,206,WeatherCatV1.21B27,2013-08-12 10:14:00,
2013-08-12 11:19:00,63.9,48.8,30.01,WNW,292,1.0,7.0,58,0.00,,,0.00,838,WeatherCatV1.21B27,2013-08-12 10:19:00,
2013-08-12 11:24:00,64.2,48.2,30.00,NW,305,3.0,7.0,56,0.00,,,0.00,329,WeatherCatV1.21B27,2013-08-12 10:24:00,
2013-08-12 11:29:00,64.3,48.3,30.01,NW,308,3.0,7.0,56,0.00,,,0.00,339,WeatherCatV1.21B27,2013-08-12 10:29:00,
2013-08-12 11:34:00,65.0,48.9,30.01,WNW,297,2.0,8.0,56,0.00,,,0.00,1065,WeatherCatV1.21B27,2013-08-12 10:34:00,
2013-08-12 11:39:00,65.7,48.6,30.01,NW,312,4.0,5.0,54,0.00,,,0.00,443,WeatherCatV1.21B27,2013-08-12 10:39:00,
2013-08-12 11:44:00,65.3,48.2,30.01,WNW,282,4.0,7.0,54,0.00,,,0.00,255,WeatherCatV1.21B27,2013-08-12 10:44:00,
2013-08-12 11:49:00,64.7,48.6,30.01,WNW,295,2.0,4.0,56,0.00,,,0.00,195,WeatherCatV1.21B27,2013-08-12 10:49:00,
2013-08-12 11:54:00,64.4,48.8,30.00,NNE,12,2.0,7.0,57,0.00,,,0.00,227,WeatherCatV1.21B27,2013-08-12 10:54:00,
2013-08-12 11:59:00,63.8,48.3,30.00,NW,309,0.0,7.0,57,0.00,,,0.00,285,WeatherCatV1.21B27,2013-08-12 10:59:00,
2013-08-12 12:04:00,63.7,48.6,30.00,WNW,303,2.0,3.0,58,0.00,,,0.00,329,WeatherCatV1.21B27,2013-08-12 11:04:00,
2013-08-12 12:09:00,64.1,49.0,30.00,NNW,327,1.0,4.0,58,0.00,,,0.00,592,WeatherCatV1.21B27,2013-08-12 11:09:00,
2013-08-12 12:15:00,65.5,49.4,30.00,NW,313,2.0,7.0,56,0.00,,,0.00,912,WeatherCatV1.21B27,2013-08-12 11:15:00,
2013-08-12 12:20:00,66.5,49.3,30.00,WNW,301,4.0,6.0,54,0.00,,,0.00,223,WeatherCatV1.21B27,2013-08-12 11:20:00,
2013-08-12 12:25:00,65.7,47.1,30.00,WNW,302,4.0,9.0,51,0.00,,,0.00,285,WeatherCatV1.21B27,2013-08-12 11:25:00,
2013-08-12 12:30:00,65.0,45.9,30.00,WNW,292,5.0,9.0,50,0.00,,,0.00,276,WeatherCatV1.21B27,2013-08-12 11:30:00,
2013-08-12 12:35:00,64.6,47.6,30.00,WNW,293,4.0,7.0,54,0.00,,,0.00,332,WeatherCatV1.21B27,2013-08-12 11:35:00,
2013-08-12 12:40:00,65.3,47.7,30.00,NNW,345,3.0,6.0,53,0.00,,,0.00,872,WeatherCatV1.21B27,2013-08-12 11:40:00,
2013-08-12 12:45:00,66.1,46.9,30.00,NW,317,1.0,5.0,50,0.00,,,0.00,396,WeatherCatV1.21B27,2013-08-12 11:45:00,
2013-08-12 12:50:00,65.6,47.5,30.00,NNW,339,5.0,8.0,52,0.00,,,0.00,557,WeatherCatV1.21B27,2013-08-12 11:50:00,
2013-08-12 12:55:00,65.3,45.6,30.00,NW,313,4.0,10.0,49,0.00,,,0.00,557,WeatherCatV1.21B27,2013-08-12 11:55:00,
2013-08-12 13:00:00,65.7,44.9,30.00,North,5,2.0,7.0,47,0.00,,,0.00,315,WeatherCatV1.21B27,2013-08-12 12:00:00,
2013-08-12 13:05:00,66.4,45.0,30.00,NW,322,6.0,9.0,46,0.00,,,0.00,849,WeatherCatV1.21B27,2013-08-12 12:05:00,
2013-08-12 13:10:00,66.7,46.4,30.00,NW,315,5.0,5.0,48,0.00,,,0.00,851,WeatherCatV1.21B27,2013-08-12 12:10:00,
2013-08-12 13:15:00,67.7,45.0,30.00,NW,317,7.0,10.0,44,0.00,,,0.00,930,WeatherCatV1.21B27,2013-08-12 12:15:00,
2013-08-12 13:20:00,66.8,45.3,30.00,NW,311,2.0,5.0,46,0.00,,,0.00,237,WeatherCatV1.21B27,2013-08-12 12:20:00,
2013-08-12 13:25:00,66.3,45.5,30.00,NNW,336,5.0,7.0,47,0.00,,,0.00,411,WeatherCatV1.21B27,2013-08-12 12:25:00,
2013-08-12 13:30:00,66.8,44.8,30.00,WNW,302,5.0,9.0,45,0.00,,,0.00,190,WeatherCatV1.21B27,2013-08-12 12:30:00,
2013-08-12 13:35:00,68.1,46.5,30.00,NNW,329,8.0,8.0,46,0.00,,,0.00,353,WeatherCatV1.21B27,2013-08-12 12:35:00,
2013-08-12 13:40:00,67.9,45.8,30.00,NW,315,5.0,5.0,45,0.00,,,0.00,436,WeatherCatV1.21B27,2013-08-12 12:40:00,
2013-08-12 13:45:00,68.5,45.1,30.00,West,280,4.0,9.0,43,0.00,,,0.00,336,WeatherCatV1.21B27,2013-08-12 12:45:00,
2013-08-12 13:50:00,67.4,45.9,30.00,NNW,338,3.0,11.0,46,0.00,,,0.00,272,WeatherCatV1.21B27,2013-08-12 12:50:00,
2013-08-12 13:55:00,66.5,46.2,30.00,WNW,292,5.0,7.0,48,0.00,,,0.00,330,WeatherCatV1.21B27,2013-08-12 12:55:00,
2013-08-12 14:00:00,66.1,46.4,30.00,NNE,31,1.0,5.0,49,0.00,,,0.00,248,WeatherCatV1.21B27,2013-08-12 13:00:00,
2013-08-12 14:05:00,67.5,47.1,30.00,NW,317,0.0,9.0,48,0.00,,,0.00,882,WeatherCatV1.21B27,2013-08-12 13:05:00,
2013-08-12 14:10:00,68.6,47.0,29.99,NW,309,4.0,6.0,46,0.00,,,0.00,1044,WeatherCatV1.21B27,2013-08-12 13:10:00,
2013-08-12 14:15:00,69.0,47.3,29.99,WNW,299,5.0,6.0,46,0.00,,,0.00,939,WeatherCatV1.21B27,2013-08-12 13:15:00,
2013-08-12 14:20:00,68.3,45.5,29.99,WNW,303,1.0,7.0,44,0.00,,,0.00,287,WeatherCatV1.21B27,2013-08-12 13:20:00,
2013-08-12 14:25:00,67.7,46.2,29.99,NW,308,6.0,9.0,46,0.00,,,0.00,608,WeatherCatV1.21B27,2013-08-12 13:25:00,
2013-08-12 14:30:00,67.1,45.6,29.99,NW,314,3.0,9.0,46,0.00,,,0.00,292,WeatherCatV1.21B27,2013-08-12 13:30:00,
2013-08-12 14:35:00,67.0,46.1,30.00,WNW,295,2.0,6.0,47,0.00,,,0.00,287,WeatherCatV1.21B27,2013-08-12 13:35:00,
2013-08-12 14:40:00,66.8,45.9,29.99,NW,304,3.0,6.0,47,0.00,,,0.00,272,WeatherCatV1.21B27,2013-08-12 13:40:00,
2013-08-12 14:45:00,66.6,45.7,30.00,NW,323,3.0,6.0,47,0.00,,,0.00,288,WeatherCatV1.21B27,2013-08-12 13:45:00,
2013-08-12 14:50:00,66.4,46.1,30.00,NNW,340,5.0,8.0,48,0.00,,,0.00,327,WeatherCatV1.21B27,2013-08-12 13:50:00,
2013-08-12 14:55:00,66.3,47.1,30.00,WNW,303,4.0,6.0,50,0.00,,,0.00,399,WeatherCatV1.21B27,2013-08-12 13:55:00,
2013-08-12 15:00:00,67.2,47.4,30.00,NW,316,2.0,7.0,49,0.00,,,0.00,362,WeatherCatV1.21B27,2013-08-12 14:00:00,
2013-08-12 15:05:00,67.1,47.3,30.00,NNW,328,6.0,6.0,49,0.00,,,0.00,243,WeatherCatV1.21B27,2013-08-12 14:05:00,
2013-08-12 15:10:00,66.6,46.8,30.00,NNW,335,1.0,8.0,49,0.00,,,0.00,185,WeatherCatV1.21B27,2013-08-12 14:10:00,
2013-08-12 15:15:00,66.4,47.2,30.00,NNW,327,3.0,7.0,50,0.00,,,0.00,251,WeatherCatV1.21B27,2013-08-12 14:15:00,
2013-08-12 15:20:00,66.6,47.4,30.00,NW,314,0.0,4.0,50,0.00,,,0.00,315,WeatherCatV1.21B27,2013-08-12 14:20:00,
2013-08-12 15:26:00,67.1,47.3,29.99,NNW,328,1.0,5.0,49,0.00,,,0.00,244,WeatherCatV1.21B27,2013-08-12 14:26:00,
2013-08-12 15:31:00,67.2,47.9,29.99,WNW,298,0.0,4.0,50,0.00,,,0.00,174,WeatherCatV1.21B27,2013-08-12 14:31:00,
2013-08-12 15:36:00,66.8,47.0,30.00,NW,321,1.0,6.0,49,0.00,,,0.00,171,WeatherCatV1.21B27,2013-08-12 14:36:00,
2013-08-12 15:40:00,66.0,47.3,30.00,WNW,301,1.0,5.0,51,0.00,,,0.00,274,WeatherCatV1.21B27,2013-08-12 14:40:00,
2013-08-12 15:46:00,66.3,47.6,30.00,NW,309,1.0,3.0,51,0.00,,,0.00,302,WeatherCatV1.21B27,2013-08-12 14:46:00,
2013-08-12 15:51:00,66.8,48.1,30.00,NW,307,5.0,5.0,51,0.00,,,0.00,287,WeatherCatV1.21B27,2013-08-12 14:51:00,
2013-08-12 15:56:00,66.6,47.4,29.99,WNW,284,2.0,5.0,50,0.00,,,0.00,244,WeatherCatV1.21B27,2013-08-12 14:56:00,
2013-08-12 16:01:00,66.4,47.7,30.00,WNW,297,2.0,9.0,51,0.00,,,0.00,239,WeatherCatV1.21B27,2013-08-12 15:01:00,
2013-08-12 16:05:00,66.5,48.3,29.99,NW,311,2.0,3.0,52,0.00,,,0.00,248,WeatherCatV1.21B27,2013-08-12 15:05:00,
2013-08-12 16:11:00,66.7,48.5,29.99,WNW,294,1.0,5.0,52,0.00,,,0.00,283,WeatherCatV1.21B27,2013-08-12 15:11:00,
2013-08-12 16:16:00,67.0,47.7,29.99,NW,315,3.0,3.0,50,0.00,,,0.00,241,WeatherCatV1.21B27,2013-08-12 15:16:00,
2013-08-12 16:21:00,66.8,47.0,29.99,WNW,295,5.0,6.0,49,0.00,,,0.00,211,WeatherCatV1.21B27,2013-08-12 15:21:00,
2013-08-12 16:26:00,66.5,47.3,30.00,NW,310,1.0,4.0,50,0.00,,,0.00,209,WeatherCatV1.21B27,2013-08-12 15:26:00,
2013-08-12 16:31:00,66.5,47.3,29.99,NW,322,4.0,4.0,50,0.00,,,0.00,246,WeatherCatV1.21B27,2013-08-12 15:31:00,
2013-08-12 16:36:00,67.0,47.7,29.99,SSE,151,1.0,5.0,50,0.00,,,0.00,332,WeatherCatV1.21B27,2013-08-12 15:36:00,
2013-08-12 16:41:00,66.8,47.0,29.99,NE,39,1.0,7.0,49,0.00,,,0.00,320,WeatherCatV1.21B27,2013-08-12 15:41:00,
2013-08-12 16:46:00,67.0,47.2,29.99,WNW,288,1.0,7.0,49,0.00,,,0.00,350,WeatherCatV1.21B27,2013-08-12 15:46:00,
2013-08-12 16:51:00,67.6,47.2,29.99,NW,319,2.0,8.0,48,0.00,,,0.00,239,WeatherCatV1.21B27,2013-08-12 15:51:00,
2013-08-12 16:56:00,67.3,47.5,29.99,NNW,338,6.0,8.0,49,0.00,,,0.00,183,WeatherCatV1.21B27,2013-08-12 15:56:00,
2013-08-12 17:01:00,66.8,47.5,29.99,NW,304,4.0,6.0,50,0.00,,,0.00,179,WeatherCatV1.21B27,2013-08-12 16:01:00,
2013-08-12 17:06:00,66.6,47.9,29.99,NW,308,0.0,3.0,51,0.00,,,0.00,144,WeatherCatV1.21B27,2013-08-12 16:06:00,
2013-08-12 17:11:00,66.3,47.1,30.00,NNW,327,3.0,8.0,50,0.00,,,0.00,100,WeatherCatV1.21B27,2013-08-12 16:11:00,
2013-08-12 17:16:00,66.1,47.4,30.00,NW,304,2.0,4.0,51,0.00,,,0.00,60,WeatherCatV1.21B27,2013-08-12 16:16:00,
2013-08-12 17:21:00,65.8,47.2,30.00,NW,304,0.0,2.0,51,0.00,,,0.00,42,WeatherCatV1.21B27,2013-08-12 16:21:00,
2013-08-12 17:26:00,65.8,47.7,30.00,NNW,332,1.0,3.0,52,0.00,,,0.00,65,WeatherCatV1.21B27,2013-08-12 16:26:00,
2013-08-12 17:31:00,65.8,47.7,30.00,NW,309,1.0,3.0,52,0.00,,,0.00,165,WeatherCatV1.21B27,2013-08-12 16:31:00,
2013-08-12 17:36:00,65.8,47.7,30.00,ENE,62,0.0,5.0,52,0.00,,,0.00,183,WeatherCatV1.21B27,2013-08-12 16:36:00,
2013-08-12 17:41:00,66.1,48.0,30.00,WNW,301,3.0,7.0,52,0.00,,,0.00,167,WeatherCatV1.21B27,2013-08-12 16:41:00,
2013-08-12 17:46:00,66.2,47.5,30.00,NW,304,5.0,8.0,51,0.00,,,0.00,155,WeatherCatV1.21B27,2013-08-12 16:46:00,
2013-08-12 17:51:00,66.1,48.0,30.00,NW,314,0.0,7.0,52,0.00,,,0.00,153,WeatherCatV1.21B27,2013-08-12 16:51:00,
2013-08-12 17:56:00,66.1,48.0,30.00,NW,319,6.0,9.0,52,0.00,,,0.00,146,WeatherCatV1.21B27,2013-08-12 16:56:00,
2013-08-12 18:01:00,65.8,48.2,30.00,NW,313,2.0,6.0,53,0.00,,,0.00,114,WeatherCatV1.21B27,2013-08-12 17:01:00,
2013-08-12 18:06:00,65.7,48.1,30.00,NNW,348,1.0,3.0,53,0.00,,,0.00,86,WeatherCatV1.21B27,2013-08-12 17:06:00,
2013-08-12 18:11:00,65.6,48.5,30.00,WNW,298,0.0,1.0,54,0.00,,,0.00,81,WeatherCatV1.21B27,2013-08-12 17:11:00,
2013-08-12 18:16:00,65.5,48.4,30.00,NW,306,3.0,3.0,54,0.00,,,0.00,97,WeatherCatV1.21B27,2013-08-12 17:16:00,
2013-08-12 18:21:00,65.3,49.2,30.00,NW,311,0.0,5.0,56,0.00,,,0.00,86,WeatherCatV1.21B27,2013-08-12 17:21:00,
2013-08-12 18:26:00,65.1,49.0,30.00,SSE,167,2.0,2.0,56,0.00,,,0.00,107,WeatherCatV1.21B27,2013-08-12 17:26:00,
2013-08-12 18:31:00,65.0,48.9,30.00,NW,314,4.0,4.0,56,0.00,,,0.00,118,WeatherCatV1.21B27,2013-08-12 17:31:00,
2013-08-12 18:36:00,65.0,49.4,30.00,NW,306,0.0,4.0,57,0.00,,,0.00,127,WeatherCatV1.21B27,2013-08-12 17:36:00,
2013-08-12 18:41:00,64.9,49.3,30.00,NW,326,2.0,3.0,57,0.00,,,0.00,107,WeatherCatV1.21B27,2013-08-12 17:41:00,
2013-08-12 18:46:00,64.9,49.3,30.00,NW,315,3.0,5.0,57,0.00,,,0.00,102,WeatherCatV1.21B27,2013-08-12 17:46:00,
2013-08-12 18:51:00,64.8,49.2,30.00,NNW,345,5.0,7.0,57,0.00,,,0.00,86,WeatherCatV1.21B27,2013-08-12 17:51:00,
2013-08-12 18:56:00,64.7,49.1,30.00,NNW,331,0.0,3.0,57,0.00,,,0.00,84,WeatherCatV1.21B27,2013-08-12 17:56:00,
2013-08-12 19:01:00,64.6,49.0,30.00,NW,325,2.0,5.0,57,0.00,,,0.00,70,WeatherCatV1.21B27,2013-08-12 18:01:00,
2013-08-12 19:06:00,64.5,48.5,30.01,NW,311,1.0,8.0,56,0.00,,,0.00,63,WeatherCatV1.21B27,2013-08-12 18:06:00,
2013-08-12 19:11:00,64.4,48.4,30.01,NW,306,1.0,6.0,56,0.00,,,0.00,54,WeatherCatV1.21B27,2013-08-12 18:11:00,
2013-08-12 19:16:00,64.3,48.3,30.01,NW,312,2.0,5.0,56,0.00,,,0.00,53,WeatherCatV1.21B27,2013-08-12 18:16:00,
2013-08-12 19:22:00,64.2,48.6,30.01,NW,306,2.0,5.0,57,0.00,,,0.00,51,WeatherCatV1.21B27,2013-08-12 18:22:00,
2013-08-12 19:27:00,64.0,48.5,30.01,NW,309,1.0,6.0,57,0.00,,,0.00,51,WeatherCatV1.21B27,2013-08-12 18:27:00,
2013-08-12 19:32:00,64.0,48.5,30.01,WSW,257,1.0,7.0,57,0.00,,,0.00,49,WeatherCatV1.21B27,2013-08-12 18:32:00,
2013-08-12 19:37:00,63.9,48.8,30.01,NNW,331,1.0,5.0,58,0.00,,,0.00,44,WeatherCatV1.21B27,2013-08-12 18:37:00,
2013-08-12 19:42:00,63.8,48.7,30.01,NW,317,7.0,9.0,58,0.00,,,0.00,42,WeatherCatV1.21B27,2013-08-12 18:42:00,
2013-08-12 19:47:00,63.7,48.6,30.01,WNW,284,6.0,6.0,58,0.00,,,0.00,33,WeatherCatV1.21B27,2013-08-12 18:47:00,
2013-08-12 19:52:00,63.5,48.9,30.01,NW,306,3.0,4.0,59,0.00,,,0.00,28,WeatherCatV1.21B27,2013-08-12 18:52:00,
2013-08-12 19:57:00,63.4,48.8,30.01,NW,321,3.0,5.0,59,0.00,,,0.00,23,WeatherCatV1.21B27,2013-08-12 18:57:00,
2013-08-12 20:02:00,63.3,48.7,30.02,NNW,348,5.0,5.0,59,0.00,,,0.00,19,WeatherCatV1.21B27,2013-08-12 19:02:00,
2013-08-12 20:07:00,63.2,49.1,30.02,WNW,296,2.0,6.0,60,0.00,,,0.00,14,WeatherCatV1.21B27,2013-08-12 19:07:00,
2013-08-12 20:12:00,63.1,49.0,30.02,NW,309,0.0,1.0,60,0.00,,,0.00,9,WeatherCatV1.21B27,2013-08-12 19:12:00,
2013-08-12 20:17:00,62.9,48.8,30.02,NW,311,0.0,2.0,60,0.00,,,0.00,9,WeatherCatV1.21B27,2013-08-12 19:17:00,
2013-08-12 20:22:00,62.8,49.2,30.02,WNW,292,4.0,4.0,61,0.00,,,0.00,5,WeatherCatV1.21B27,2013-08-12 19:22:00,
2013-08-12 20:28:00,62.6,49.0,30.02,WNW,303,0.0,3.0,61,0.00,,,0.00,0,WeatherCatV1.21B27,2013-08-12 19:28:00,
2013-08-12 20:33:00,62.5,49.3,30.03,NW,306,0.0,1.0,62,0.00,,,0.00,0,WeatherCatV1.21B27,2013-08-12 19:33:00,
2013-08-12 20:38:00,62.3,49.1,30.03,NW,320,0.0,3.0,62,0.00,,,0.00,0,WeatherCatV1.21B27,2013-08-12 19:38:00,
2013-08-12 20:43:00,62.2,49.0,30.03,NW,323,0.0,3.0,62,0.00,,,0.00,0,WeatherCatV1.21B27,2013-08-12 19:43:00,
2013-08-12 20:48:00,62.0,49.3,30.03,NW,308,1.0,3.0,63,0.00,,,0.00,0,WeatherCatV1.21B27,2013-08-12 19:48:00,
2013-08-12 20:53:00,61.8,49.1,30.03,NW,306,0.0,6.0,63,0.00,,,0.00,0,WeatherCatV1.21B27,2013-08-12 19:53:00,
2013-08-12 20:58:00,61.6,48.9,30.04,NW,306,0.0,2.0,63,0.00,,,0.00,0,WeatherCatV1.21B27,2013-08-12 19:58:00,
2013-08-12 21:03:00,61.5,49.2,30.04,NW,306,0.0,1.0,64,0.00,,,0.00,0,WeatherCatV1.21B27,2013-08-12 20:03:00,
2013-08-12 21:08:00,61.4,49.1,30.04,NW,306,0.0,2.0,64,0.00,,,0.00,0,WeatherCatV1.21B27,2013-08-12 20:08:00,
2013-08-12 21:13:00,61.4,49.1,30.05,NW,306,1.0,2.0,64,0.00,,,0.00,0,WeatherCatV1.21B27,2013-08-12 20:13:00,
2013-08-12 21:19:00,61.2,49.8,30.05,NE,50,1.0,3.0,66,0.00,,,0.00,0,WeatherCatV1.21B27,2013-08-12 20:19:00,
2013-08-12 21:24:00,61.0,50.0,30.05,NW,313,1.0,3.0,67,0.00,,,0.00,0,WeatherCatV1.21B27,2013-08-12 20:24:00,
2013-08-12 21:30:00,60.7,49.7,30.05,NNW,327,3.0,6.0,67,0.00,,,0.00,0,WeatherCatV1.21B27,2013-08-12 20:30:00,
2013-08-12 21:35:00,60.5,49.9,30.05,NNW,334,0.0,3.0,68,0.00,,,0.00,0,WeatherCatV1.21B27,2013-08-12 20:35:00,
2013-08-12 21:40:00,60.2,49.6,30.06,NNW,328,0.0,5.0,68,0.00,,,0.00,0,WeatherCatV1.21B27,2013-08-12 20:40:00,
2013-08-12 21:57:00,59.4,49.2,30.06,North,5,0.0,0.0,69,0.00,,,0.00,0,WeatherCatV1.21B27,2013-08-12 20:57:00,
2013-08-12 22:02:00,59.3,49.5,30.06,NW,321,0.0,3.0,70,0.00,,,0.00,0,WeatherCatV1.21B27,2013-08-12 21:02:00,
2013-08-12 22:07:00,59.2,49.8,30.06,NW,325,1.0,3.0,71,0.00,,,0.00,0,WeatherCatV1.21B27,2013-08-12 21:07:00,
2013-08-12 22:10:00,59.1,49.7,30.06,NW,325,1.0,2.0,71,0.00,,,0.00,0,WeatherCatV1.21B27,2013-08-12 21:10:00,
2013-08-12 22:16:00,58.9,49.5,30.06,NW,325,2.0,2.0,71,0.00,,,0.00,0,WeatherCatV1.21B27,2013-08-12 21:16:00,
2013-08-12 22:21:00,58.7,49.3,30.06,NNW,327,0.0,0.0,71,0.00,,,0.00,0,WeatherCatV1.21B27,2013-08-12 21:21:00,
2013-08-12 22:26:00,58.6,49.6,30.06,NW,326,1.0,1.0,72,0.00,,,0.00,0,WeatherCatV1.21B27,2013-08-12 21:26:00,
2013-08-12 22:31:00,58.4,49.4,30.06,NNW,328,3.0,3.0,72,0.00,,,0.00,0,WeatherCatV1.21B27,2013-08-12 21:31:00,
2013-08-12 22:36:00,58.2,49.2,30.06,NNW,328,0.0,3.0,72,0.00,,,0.00,0,WeatherCatV1.21B27,2013-08-12 21:36:00,
2013-08-12 22:41:00,58.1,49.1,30.07,NNW,328,0.0,0.0,72,0.00,,,0.00,0,WeatherCatV1.21B27,2013-08-12 21:41:00,
2013-08-12 22:46:00,58.0,49.0,30.07,WNW,296,0.0,2.0,72,0.00,,,0.00,0,WeatherCatV1.21B27,2013-08-12 21:46:00,
2013-08-12 22:51:00,58.0,49.0,30.07,WNW,299,0.0,4.0,72,0.00,,,0.00,0,WeatherCatV1.21B27,2013-08-12 21:51:00,
2013-08-12 22:56:00,57.8,49.2,30.07,WNW,299,0.0,2.0,73,0.00,,,0.00,0,WeatherCatV1.21B27,2013-08-12 21:56:00,
2013-08-12 23:01:00,57.6,49.0,30.07,WNW,300,0.0,1.0,73,0.00,,,0.00,0,WeatherCatV1.21B27,2013-08-12 22:01:00,
2013-08-12 23:06:00,57.4,48.8,30.07,WNW,300,0.0,1.0,73,0.00,,,0.00,0,WeatherCatV1.21B27,2013-08-12 22:06:00,
2013-08-12 23:11:00,57.2,49.0,30.07,NW,315,0.0,0.0,74,0.00,,,0.00,0,WeatherCatV1.21B27,2013-08-12 22:11:00,
2013-08-12 23:19:00,56.9,48.7,30.08,NNW,336,0.0,1.0,74,0.00,,,0.00,0,WeatherCatV1.21B27,2013-08-12 22:19:00,
2013-08-12 23:37:00,56.5,48.7,30.08,SE,128,0.0,2.0,75,0.00,,,0.00,0,WeatherCatV1.21B27,2013-08-12 22:37:00,
2013-08-12 23:43:00,56.3,48.5,30.08,NNW,329,0.0,0.0,75,0.00,,,0.00,0,WeatherCatV1.21B27,2013-08-12 22:43:00,
2013-08-12 23:49:00,56.2,48.7,30.08,NW,310,0.0,2.0,76,0.00,,,0.00,0,WeatherCatV1.21B27,2013-08-12 22:49:00,
2013-08-12 23:54:00,56.0,48.5,30.08,NW,323,0.0,2.0,76,0.00,,,0.00,0,WeatherCatV1.21B27,2013-08-12 22:54:00,
2013-08-12 23:59:00,55.8,48.3,30.08,NW,323,0.0,1.0,76,0.00,,,0.00,0,WeatherCatV1.21B27,2013-08-12 22:59:00,